Findlay, OH

2:31 AM EDT on March 24, 2017 (GMT -0400)
Findlay

Weather History for KFDY - May, 2015

Change the Weather History Date:

Sunday, May 10, 2015

  Actual Average Record
Temperature  
Mean Temperature 74 °F -  
Max Temperature 82 °F 68 °F 86 °F (2004)
Min Temperature 66 °F 46 °F 28 °F (1966)
Cooling Degree Days 9    
Growing Degree Days 24 (Base 50)    
Moisture  
Dew Point 64 °F    
Average Humidity 76    
Maximum Humidity 93    
Minimum Humidity 49    
Precipitation  
Precipitation 0.06 in - - ()
Sea Level Pressure  
Sea Level Pressure 30.02 in    
Wind  
Wind Speed 7 mph (South)    
Max Wind Speed 16 mph    
Max Gust Speed 28 mph    
Visibility 9 miles    
Events Rain    
Averages and records for this station are not official NWS values.
T = Trace of Precipitation, MM = Missing Value Source: NWS Daily Summary

Daily Weather History Graph

Daily Weather History Graph

Search for Another Location

Airport or City:

Trip Planner

Search our weather history database for the weather conditions in past years. The results will help you decide how hot, cold, wet, or windy it might be!

Date:

Astronomy

May. 10, 2015 Rise Set
Actual Time 6:22 AM EDT 8:40 PM EDT
Civil Twilight 5:51 AM EDT 9:11 PM EDT
Nautical Twilight 5:13 AM EDT 9:49 PM EDT
Astronomical Twilight 4:31 AM EDT 10:31 PM EDT
Moon 1:36 AM EDT (5/10) 12:17 PM EDT (5/10)
Length of Visible Light 15h 19m
Length of Day
14h 18m
Waning Gibbous, 59% of the Moon is Illuminated
May 10
Waning Gibbous
May 11
Last Quarter
May 18
New
May 25
First Quarter
Jun 2
Full

Hourly Weather History & Observations

Time (EDT) Temp. Heat Index Dew Point Humidity Pressure Visibility Wind Dir Wind Speed Gust Speed Precip Events Conditions
12:53 AM 66.9 °F - 64.0 °F 90% 30.05 in 7.0 mi South 4.6 mph - N/A   Partly Cloudy
1:53 AM 66.0 °F - 64.0 °F 93% 30.04 in 5.0 mi SSE 3.5 mph - N/A   Scattered Clouds
2:53 AM 66.9 °F - 64.0 °F 90% 30.03 in 6.0 mi SSE 6.9 mph - 0.01 in   Mostly Cloudy
3:53 AM 66.0 °F - 64.0 °F 93% 30.02 in 6.0 mi SE 3.5 mph - 0.02 in   Mostly Cloudy
4:53 AM 66.0 °F - 64.0 °F 93% 30.02 in 6.0 mi SE 6.9 mph - N/A   Overcast
5:53 AM 66.0 °F - 63.0 °F 90% 30.03 in 7.0 mi SSE 6.9 mph - N/A   Scattered Clouds
6:53 AM 66.9 °F - 63.0 °F 87% 30.04 in 7.0 mi SSE 8.1 mph - N/A   Partly Cloudy
7:53 AM 66.9 °F - 63.0 °F 87% 30.04 in 8.0 mi SSE 4.6 mph - N/A   Clear
8:53 AM 72.0 °F - 64.9 °F 78% 30.05 in 10.0 mi South 4.6 mph - N/A   Partly Cloudy
9:53 AM 75.9 °F - 66.0 °F 71% 30.04 in 10.0 mi South 8.1 mph - N/A   Partly Cloudy
10:53 AM 80.1 °F 82.3 °F 66.9 °F 64% 30.04 in 10.0 mi SSW 12.7 mph - N/A   Partly Cloudy
11:53 AM 81.0 °F 83.0 °F 66.0 °F 60% 30.04 in 10.0 mi SSW 12.7 mph - N/A   Scattered Clouds
12:53 PM 80.1 °F 81.7 °F 64.0 °F 58% 30.03 in 10.0 mi SW 15.0 mph - N/A   Partly Cloudy
1:53 PM 82.0 °F 83.8 °F 64.9 °F 56% 30.01 in 10.0 mi SSW 16.1 mph - N/A   Clear
2:53 PM 82.0 °F 82.7 °F 61.0 °F 49% 30.00 in 10.0 mi SW 15.0 mph - N/A   Mostly Cloudy
3:22 PM 73.0 °F - 59.0 °F 61% 30.03 in 10.0 mi WNW 13.8 mph 27.6 mph N/A   Overcast
3:53 PM 72.0 °F - 64.0 °F 76% 30.01 in 10.0 mi WNW 6.9 mph - 0.00 in   Overcast
4:53 PM 78.1 °F - 64.0 °F 62% 29.99 in 10.0 mi NW 4.6 mph - N/A   Clear
5:53 PM 79.0 °F - 64.9 °F 62% 29.98 in 10.0 mi ESE 3.5 mph - N/A   Scattered Clouds
6:53 PM 77.0 °F - 66.0 °F 69% 29.99 in 10.0 mi SW 5.8 mph - N/A   Mostly Cloudy
7:53 PM 72.0 °F - 64.0 °F 76% 29.98 in 4.0 mi South 10.4 mph - 0.03 in Rain Rain
8:53 PM 71.1 °F - 66.9 °F 87% 29.97 in 10.0 mi East 3.5 mph - 0.00 in   Overcast
9:53 PM 71.1 °F - 64.9 °F 81% 29.98 in 10.0 mi SSE 4.6 mph - N/A   Mostly Cloudy
10:53 PM 72.0 °F - 63.0 °F 73% 29.99 in 10.0 mi Calm Calm - N/A   Mostly Cloudy
11:53 PM 68.0 °F - 64.0 °F 87% 30.00 in 10.0 mi South 4.6 mph - N/A   Mostly Cloudy